パンスターズ彗星

258P/PanSTARRS (2011)

English version
Home page
Updated on August 13, 2012

---------------------------------------------------------------------

・ プロフィール

符号 258P/2012 H1
発見日 2012年4月27日
発見光度 21.6等
発見者 Pan-STARRS 1 telescope (Haleakala)

・ 写真集

・ 軌道要素

Epoch 2011 Mar. 20.0 TT = JDT 2455640.5
T 2011 Mar. 18.75868 TT                                 MPC
q   3.4793840            (2000.0)            P               Q
n   0.10679848     Peri.   25.77212     -0.88147208     -0.46266219
a   4.3997297      Node   126.34387     +0.41041308     -0.84964371
e   0.2091823      Incl.    6.74532     +0.23359812     -0.25307957
P   9.23
From 35 observations 2002 Mar. 11-2012 May 21, mean residual 0".5.

・ 光度変化

        m1 = 12.5 + 5 logΔ + 10.0 log r

---------------------------------------------------------------------

軌道要素はM.P.E.C. 2012-K56に掲載されたものです。
光度グラフはComet for Windowsで作成したものです。

---------------------------------------------------------------------

Copyright(C) Seiichi Yoshida (comet@aerith.net). All rights reserved.